International Virtual Aviation Organisation

Russian Federation and Kazakhstan MCD

 

Карточка аэропорта UATE

Внимание!
Информация на этой странице в стадии наполнения.
Если вы не увидели какой-то информации, или заметили неточность - пожалуйста сообщите нам!
Спасибо!
Команда RU-STAFF
Название аэропортаАктау
Название аэропорта (англ.)Aktau
Превышение75 ft. (22.9 m.)
Координаты43°51.138', 51°5.3639999999999'
Высота перехода2050
Эшелон переходаFL40
Коды ответчика3460-3467, 3550-3557
Зона ОрВДАктобе РПИ (UATT)
Данные METARUATE 281230Z 12008MPS 9999 SCT050 04/00 Q1034 R12/0///70 NOSIG RMK QFE773/1031
Проноз погоды (TAF)UATE 281101Z 2812/2912 10009G15MPS 9999 BKN030 TX05/2910Z TNM02/2903Z
NOTAMshow/hide NOTAM
AWOS   TABLE

Информация о ВПП

ВПП Длина ВПП (м.) Покрытие Курс ВПП Частота ILS
123052Асфальтобетон122109.5
303052Асфальт302111.1

Диспетчерские позиции

Позывной Наименование органа УВД Частота
UATE_APPАктау Поход134.3
UATE_TWRАктау Вышка120.7



Спутниковое изображение